Home > Weather > Wood Buffalo > Past weeks

Flag for Canada Weather for the Past 2 Weeks in Wood Buffalo, Alberta, Canada

Now
72 °F

Partly sunny.


Feels Like: 76 °F
Forecast: 45 / 83 °F
Wind: 5 mph from West

Location: Fort Mcmurray

Current Time: May 1, 2016 at 7:46:02 PM

Latest Report: May 1, 2016 at 7:00 PM


Visibility: 9 mi

Pressure: 29.97 "Hg

Humidity: 25%

Dew Point: 34 °F

Location of Wood BuffaloLocation

Historic Weather in Wood Buffalo — Graph

°F

Wood Buffalo Temperature Yesterday

Maximum temperature yesterday: 66 °F (at 12:00 PM)
Minimum temperature yesterday: 46 °F (at 4:00 AM)
Average temperature yesterday: 56 °F

High & Low Weather Summary for the Past Weeks

 TemperatureHumidityPressure
High81 °F (Apr 18, 3:00 PM)100% (Apr 27, 2:00 AM)30.44 "Hg (Apr 27, 2:00 AM)
Low21 °F (Apr 21, 6:00 AM)12% (Apr 19, 2:00 PM)29.75 "Hg (Apr 19, 3:00 AM)
Average48 °F47%30.13 "Hg
* Reported Apr 16 6:00 PM — May 1 6:00 PM, Wood Buffalo, Weather by CustomWeather, © 2016

Note: Actual official high and low records may vary slightly from our data, if they occured in-between our weather recording intervals... More about our weather records

Advertising

Wood Buffalo Weather History for the Previous 24 Hours

Scroll right to see more
 ConditionsComfort  
Time TempWeatherWind HumidityBarometerVisibility
6:00 PM
Sun, May 1
73 °FPartly sunny.7 mph23%29.98 "Hg9 mi
5:00 PM75 °FSunny.12 mph22%29.98 "Hg9 mi
4:00 PM75 °FSunny.13 mph21%29.98 "Hg9 mi
3:00 PM75 °FSunny.8 mph18%30.00 "Hg9 mi
2:00 PM72 °FSunny.7 mph17%30.02 "Hg9 mi
1:00 PM70 °FSunny.13 mph18%30.05 "Hg9 mi
12:00 PM68 °FSunny.14 mph18%30.07 "Hg9 mi
11:00 AM68 °FSunny.8 mph16%30.09 "Hg9 mi
10:00 AM57 °FSunny.3 mph33%30.11 "Hg9 mi
9:00 AM52 °FSunny.3 mph35%30.13 "Hg9 mi
8:00 AM45 °FSunny.No wind39%30.14 "Hg9 mi
7:00 AM39 °FSunny.2 mph56%30.15 "Hg9 mi
6:00 AM36 °FClear.No wind65%30.16 "Hg9 mi
5:00 AM39 °FClear.5 mph48%30.15 "Hg9 mi
4:00 AM39 °FClear.3 mph52%30.16 "Hg9 mi
3:00 AM37 °FClear.3 mph56%30.16 "Hg9 mi
2:00 AM39 °FClear.5 mph56%30.15 "Hg9 mi
1:00 AM39 °FPassing clouds.6 mph61%30.15 "Hg9 mi
12:00 AM48 °FClear.3 mph43%30.14 "Hg9 mi
11:00 PM
Sat, Apr 30
50 °FPassing clouds.8 mph47%30.14 "Hg9 mi
10:00 PM50 °FScattered clouds.10 mph54%30.13 "Hg9 mi
9:00 PM54 °FOvercast.10 mph51%30.13 "Hg9 mi
8:00 PM61 °FBroken clouds.6 mph39%30.14 "Hg9 mi
7:02 PM61 °FOvercast.6 mph39%30.16 "Hg9 mi
Weather by CustomWeather, © 2016

See weather overviewHow to use our weather pages